Skip Page Navigation
NASA JPL Caltech
NASA Logo - Jet Propulsion Laboratory + View the NASA Portal
+ Near-Earth Object (NEO) Program
Search JPL
JPL Home Earth Solar System Stars & Galaxies Technology
JPL Solar System Dynamics
BODIES ORBITS EPHEMERIDES TOOLS PHYSICAL DATA DISCOVERY FAQ SITE MAP
JPL Small-Body Database Browser
Search: [ help ]  
9718 Gerbefremov (1976 YR1)
Classification: Main-belt Asteroid          SPK-ID: 2009718
Ephemeris | Orbit Diagram | Orbital Elements | Physical Parameters | Discovery Circumstances | Close-Approach Data ]

[ show orbit diagram ]
Orbital Elements at Epoch 2457000.5 (2014-Dec-09.0) TDB
Reference: JPL 12 (heliocentric ecliptic J2000)
 Element Value Uncertainty (1-sigma)   Units 
e .1489001133597478 4.6043e-08  
a 2.364114037328263 1.35e-08 AU
q 2.012097189174714 1.0698e-07 AU
i 5.924994160035519 6.1222e-06 deg
node 84.53169285752843 6.5956e-05 deg
peri 25.0483350449571 7.3982e-05 deg
M 141.149041083461 3.1263e-05 deg
tp 2456479.933171372880
(2013-Jul-06.43317137)
0.00011387 JED
period 1327.703375575551
3.64
1.1373e-05
3.114e-08
d
yr
n .2711449007531085 2.3226e-09 deg/d
Q 2.716130885481813 1.551e-08 AU
  Orbit Determination Parameters
   # obs. used (total)      978  
   data-arc span      21741 days (59.52 yr)  
   first obs. used      1954-12-21  
   last obs. used      2014-06-30  
   planetary ephem.      DE431  
   SB-pert. ephem.      SB431-BIG16  
   condition code      0  
   fit RMS      .53709  
   data source      ORB  
   producer      Otto Matic  
   solution date      2014-Oct-09 14:16:01  

Additional Information
 Earth MOID = 1.03051 AU 
 T_jup = 3.527 
[ show covariance matrix ]

Ephemeris | Orbit Diagram | Orbital Elements | Physical Parameters | Discovery Circumstances | Close-Approach Data ]

Physical Parameter Table
Parameter Symbol Value Units Sigma Reference Notes
absolute magnitude H 13.7 mag n/a MPO256936  

9718 Gerbefremov           Discovered 1976 Dec. 16 by L. I. Chernykh at the Crimean Astrophysical Observatory.
Gerbert Alexandrovich Efremov (b. 1933), a well-known designer of space technology, created the Proton and Almaz space stations. He is a member of Tsiolkovsky Russian Academy of Cosmonautics and was decorated with the Leonardo da Vinci Medal of the International Association of Peace Foundations.
NOTE: some special characters may not display properly (any characters within {} are an attempt to place the proper accent above a character)
Reference: 20060413/MPCPages.arcLast Updated: 2006-04-17

[ show close-approach data ]
Alternate Designations
 1976 YR1 = 1992 FF1 
Ephemeris | Orbit Diagram | Orbital Elements | Physical Parameters | Discovery Circumstances | Close-Approach Data ]
ABOUT SSD CREDITS/AWARDS PRIVACY/COPYRIGHT GLOSSARY LINKS
FirstGov 2014-Oct-22 09:37 UT
(server date/time)  
NASA Home Page
Site Manager:   Donald K. Yeomans
Webmaster  Alan B. Chamberlin